Find Starlink 2071

NORAD ID: 47361 Int'l Des: 2021-005 Owner: SPXS Country: US Constellation: starlink operational
LEOCIRCULARSTARLINK_TYPE

实时位置

正在加载3D地球...

关于 Starlink 2071

正在加载描述...

即将过境

Passes for default location (London). Set your location on the main map for personalized predictions.

高度历史

Loading altitude history...

两行轨道根数

1 47361U 21005N 26122.77430559 -.00000936 00000-0 -20124-4 0 9995
2 47361 53.1552 145.3657 0001190 85.9730 274.1406 15.29352612291662
Epoch: May 2, 2026 • Age: 13 hours

当前状态

高度 478.7 km
速度 7.63 km/s
星下点 28.59°N, 163.69°W
发射日期 Jan 20, 2021
运行时间 5.2 years
类型 internet

技术详情

分类 Payload
质量 260.00 kg
干质量 248.00 kg
总质量 260.00 kg
长度 0.20 m
直径 2.80 m
跨度 9.00 m
形状 Box + pan
制造商 SPXS
平台类型 Starlink
阶段状态 In Orbit
所有者/国家 SPXS/US

Most Searched